Temp
3 3 3 3 3 3 3 3 3 3 3 3 3 3 3 4 3 3 3 3 3 4 4 4 4 3 3 2 2 2 2 2 2 1 1 1 1 1 1 1 1 1
3 3 3 3 3 3 3 3 3 3 3 3 3 3 3 4 4 3 3 3 4 4 4 4 3 3 3 3 2 2 2 2 2 2 1 1 1 1 1 1 1 1
3 3 3 3 2 3 3 3 3 3 3 3 3 3 3 3 4 4 4 4 4 4 4 3 3 3 3 3 2 2 2 2 2 2 1 1 1 1 1 1 1 1
3 2 2 2 2 2 2 3 3 3 2 3 3 3 3 3 4 4 4 4 4 4 4 3 3 3 2 2 2 2 2 2 2 2 1 1 1 1 1 1 1 1
2 2 2 2 2 2 2 3 3 2 2 3 3 3 3 3 3 3 4 4 4 4 4 3 3 3 2 2 2 2 2 2 2 2 2 1 1 1 1 1 1 1
2 2 2 2 2 2 2 2 3 2 2 3 3 2 2 2 3 3 3 4 4 4 4 3 3 3 3 2 2 2 2 2 2 2 2 2 1 1 1 1 1 1
2 2 2 2 2 2 2 2 2 2 2 3 2 2 2 2 2 3 3 3 3 3 4 3 3 3 3 3 2 2 2 2 2 2 2 2 1 1 1 1 1 1
2 2 2 2 1 1 2 2 2 2 2 2 2 2 2 2 2 2 3 3 3 3 3 3 3 3 3 3 3 2 2 2 2 2 2 2 2 1 1 1 1 1
2 2 2 1 1 1 1 1 1 2 2 2 2 2 2 2 2 2 3 3 3 3 3 3 3 3 3 2 2 2 2 2 2 2 2 1 1 1 1 1 1 1
1 1 1 1 1 1 1 1 1 1 1 2 2 1 1 1 2 2 2 3 3 3 3 3 2 2 2 2 2 2 2 2 2 2 1 1 1 1 1 1 1 1
1 1 1 1 0 0 0 0 1 1 1 1 2 1 1 1 1 2 2 2 2 2 2 2 2 2 2 2 2 2 1 1 1 1 1 1 1 1 1 1 1 0
1 1 1 1 0 0 0 0 1 1 1 1 1 1 1 1 1 2 2 2 2 2 2 2 2 2 1 1 1 1 1 1 1 1 1 1 1 0 0 0 0 0
1 0 -0 0 1 0 0 0 1 1 1 2 2 1 1 1 1 2 2 2 2 2 2 2 1 1 1 1 1 1 1 1 1 1 0 0 0 0 0 0 0 0
0 0 0 0 1 0 0 1 1 1 2 2 2 2 2 1 1 1 2 2 1 1 1 1 1 1 1 1 1 1 1 1 1 1 0 0 0 0 0 0 0 0
1 1 1 1 1 0 1 1 1 1 1 1 1 1 1 1 1 1 1 1 1 1 1 1 1 1 1 1 1 1 1 1 1 0 0 0 0 0 0 0 0 -0
1 1 1 1 0 0 1 1 1 1 1 1 1 1 1 1 1 1 1 1 1 1 1 1 1 1 1 0 0 0 0 0 0 0 0 0 0 0 0 -0 -0 -0
1 1 0 0 0 0 0 0 1 1 1 1 1 1 1 0 0 0 0 0 1 1 1 1 1 1 1 0 0 0 0 0 0 0 -0 -0 -0 -0 -0 -0 -0 -0
1 1 0 0 0 0 0 0 0 0 0 1 1 1 1 0 0 -0 -0 -0 0 0 0 0 0 0 0 0 0 0 0 -0 -0 -0 -0 -0 -0 -0 -0 -0 -1 -1
1 1 1 0 0 0 0 0 0 0 0 0 0 0 1 0 0 -0 -0 -0 -0 -0 -0 -0 -0 -0 -0 -0 -0 -0 -0 -0 -0 -0 -1 -1 -1 -1 -1 -1 -1 -1
1 1 1 1 1 1 0 0 0 -0 0 0 0 0 0 0 0 -0 -0 -0 -0 -0 -0 -0 -0 -0 -0 -0 -1 -1 -1 -1 -1 -1 -1 -1 -1 -1 -1 -1 -1 -1
1 1 1 1 1 1 1 1 0 0 0 0 -0 -0 -0 0 0 -0 -0 -0 -0 -0 -0 -0 -0 -0 -0 -0 -0 -1 -1 -1 -1 -1 -1 -1 -1 -1 -1 -1 -1 -1
-0 -0 0 0 0 0 0 0 0 0 0 0 -0 -0 -0 -0 0 -0 -0 -0 -0 -1 -1 -1 -1 -0 -0 -0 -0 -1 -1 -1 -1 -1 -0 -0 -0 -0 -1 -1 -1 -1
-1 -1 -1 -1 -1 -1 -0 -0 -0 -0 -0 -0 -0 -0 -1 -1 -0 -0 -0 -0 -1 -1 -1 -1 -1 -1 -1 -1 -1 -1 -1 -1 -1 -1 -1 -1 -1 -0 -1 -1 -1 -1
-2 -2 -1 -1 -1 -1 -1 -1 -1 -1 -1 -1 -1 -1 -1 -1 -1 -1 -1 -1 -1 -1 -1 -1 -1 -1 -1 -1 -1 -1 -1 -1 -1 -1 -1 -1 -1 -1 -1 -1 -1 -1
-2 -2 -2 -2 -2 -2 -2 -1 -1 -1 -1 -1 -1 -1 -1 -1 -1 -1 -1 -1 -1 -1 -1 -1 -1 -1 -1 -1 -1 -1 -1 -1 -1 -1 -1 -1 -1 -1 -1 -1 -1 -2
-2 -2 -2 -2 -2 -2 -2 -2 -2 -2 -2 -2 -1 -1 -1 -1 -1 -1 -1 -1 -1 -1 -1 -1 -1 -1 -1 -1 -1 -2 -2 -2 -1 -1 -1 -1 -1 -1 -1 -1 -1 -2
Height
3136 3137 3138 3139 3140 3141 3142 3142 3143 3143 3143 3142 3142 3141 3141 3140 3139 3138 3138 3138 3139 3140 3141 3141 3141 3141 3141 3141 3141 3142 3142 3143 3144 3144 3145 3145 3146 3146 3147 3148 3148 3149
3135 3136 3137 3137 3138 3139 3140 3142 3142 3142 3142 3143 3142 3141 3141 3140 3140 3139 3138 3138 3139 3140 3140 3140 3141 3141 3141 3141 3141 3142 3142 3143 3144 3145 3145 3145 3145 3146 3146 3147 3148 3149
3134 3134 3135 3136 3137 3138 3139 3141 3142 3142 3142 3142 3142 3141 3141 3140 3140 3139 3139 3139 3139 3139 3140 3140 3140 3141 3141 3141 3142 3142 3142 3143 3144 3145 3145 3145 3145 3146 3147 3147 3148 3149
3132 3133 3134 3135 3136 3137 3139 3140 3141 3141 3141 3141 3141 3141 3140 3140 3140 3140 3139 3139 3139 3139 3139 3140 3140 3140 3141 3141 3142 3142 3142 3143 3144 3145 3145 3146 3146 3147 3147 3148 3149 3150
3131 3132 3132 3134 3136 3137 3138 3139 3140 3140 3140 3140 3140 3140 3139 3139 3139 3139 3139 3139 3139 3139 3139 3139 3140 3140 3141 3141 3142 3142 3142 3143 3144 3144 3145 3146 3146 3147 3148 3148 3149 3150
3128 3130 3131 3133 3135 3137 3138 3139 3139 3139 3139 3139 3139 3139 3139 3139 3139 3139 3139 3139 3139 3139 3139 3139 3140 3140 3141 3141 3142 3142 3142 3143 3143 3144 3144 3145 3146 3147 3148 3148 3149 3150
3124 3128 3131 3133 3134 3136 3137 3138 3138 3138 3137 3138 3138 3138 3138 3138 3139 3139 3139 3139 3139 3139 3140 3140 3140 3140 3141 3141 3141 3142 3142 3143 3143 3144 3144 3145 3146 3148 3148 3149 3149 3150
3127 3129 3130 3131 3132 3134 3136 3137 3137 3137 3136 3136 3136 3137 3137 3138 3138 3139 3139 3139 3139 3139 3140 3140 3140 3140 3140 3141 3141 3142 3142 3143 3143 3144 3145 3145 3147 3148 3149 3150 3150 3151
3127 3128 3129 3130 3130 3131 3134 3135 3136 3135 3135 3135 3135 3135 3136 3137 3137 3138 3138 3138 3139 3139 3140 3140 3140 3140 3141 3141 3141 3142 3142 3143 3143 3144 3145 3146 3147 3149 3150 3151 3151 3152
3124 3125 3127 3128 3128 3129 3131 3133 3134 3134 3134 3134 3134 3134 3135 3136 3136 3137 3137 3138 3138 3139 3140 3140 3140 3141 3141 3141 3142 3142 3142 3143 3143 3144 3145 3147 3148 3149 3151 3151 3152 3153
3122 3123 3125 3125 3126 3127 3129 3131 3132 3132 3132 3133 3133 3133 3134 3135 3136 3136 3137 3137 3138 3139 3140 3140 3141 3141 3141 3142 3142 3142 3143 3143 3144 3145 3146 3147 3149 3150 3151 3152 3153 3153
3118 3120 3121 3122 3124 3126 3128 3129 3130 3131 3131 3132 3132 3133 3133 3134 3135 3136 3136 3137 3138 3139 3140 3140 3141 3141 3142 3142 3142 3143 3143 3144 3145 3146 3146 3148 3149 3150 3151 3152 3153 3153
3114 3117 3118 3119 3121 3125 3127 3128 3129 3129 3130 3131 3131 3132 3133 3134 3135 3135 3136 3137 3138 3139 3140 3140 3141 3141 3142 3142 3142 3143 3143 3144 3145 3146 3147 3148 3148 3149 3150 3151 3152 3153
3112 3114 3116 3117 3120 3123 3124 3126 3127 3127 3128 3129 3129 3130 3131 3132 3133 3134 3136 3137 3138 3138 3139 3140 3141 3141 3142 3142 3142 3143 3143 3144 3145 3145 3146 3147 3147 3148 3149 3150 3151 3151
3112 3113 3115 3117 3119 3120 3121 3123 3124 3125 3126 3127 3128 3129 3130 3131 3132 3133 3134 3136 3137 3137 3138 3139 3140 3140 3141 3141 3142 3142 3143 3143 3144 3144 3145 3146 3146 3147 3148 3149 3149 3150
3111 3113 3114 3115 3117 3118 3120 3122 3123 3124 3125 3126 3126 3127 3128 3129 3131 3132 3133 3134 3135 3136 3137 3138 3139 3139 3140 3140 3141 3141 3141 3142 3142 3143 3143 3144 3145 3146 3147 3147 3148 3148
3110 3111 3112 3113 3115 3117 3120 3121 3121 3122 3124 3125 3126 3126 3127 3128 3129 3130 3131 3132 3133 3135 3136 3137 3137 3138 3138 3139 3139 3140 3140 3140 3141 3141 3141 3142 3143 3144 3144 3145 3146 3146
3109 3111 3112 3114 3116 3117 3119 3120 3121 3122 3122 3124 3125 3126 3126 3126 3128 3129 3130 3131 3132 3133 3134 3135 3136 3137 3137 3138 3138 3138 3138 3139 3139 3139 3139 3139 3140 3141 3142 3142 3143 3143
3110 3111 3112 3113 3115 3116 3117 3118 3120 3120 3120 3121 3123 3125 3125 3125 3126 3128 3129 3129 3130 3131 3132 3133 3134 3134 3135 3136 3136 3137 3137 3137 3137 3137 3137 3137 3138 3138 3139 3139 3140 3141
3111 3111 3111 3112 3113 3115 3116 3116 3117 3118 3119 3120 3121 3124 3125 3125 3125 3126 3127 3128 3128 3129 3130 3130 3131 3132 3132 3133 3133 3134 3134 3134 3134 3134 3134 3134 3135 3135 3135 3136 3137 3138
3111 3112 3112 3113 3113 3114 3115 3116 3116 3117 3118 3119 3120 3122 3124 3124 3124 3124 3125 3126 3126 3127 3127 3128 3129 3129 3129 3130 3130 3131 3131 3131 3131 3131 3131 3131 3131 3131 3131 3133 3135 3134
3111 3112 3112 3113 3113 3114 3115 3115 3116 3116 3117 3118 3119 3120 3121 3122 3122 3122 3122 3123 3123 3123 3124 3125 3126 3126 3127 3127 3127 3127 3128 3128 3128 3127 3127 3127 3127 3127 3126 3129 3131 3131
3109 3110 3110 3111 3112 3112 3113 3114 3114 3115 3116 3116 3117 3118 3118 3119 3119 3119 3119 3119 3119 3120 3120 3121 3122 3123 3124 3124 3124 3124 3124 3124 3124 3123 3123 3123 3123 3123 3122 3123 3126 3126
3107 3107 3108 3108 3109 3110 3111 3111 3112 3113 3113 3114 3114 3115 3115 3116 3116 3116 3116 3116 3116 3116 3116 3117 3118 3119 3120 3120 3120 3120 3120 3120 3120 3119 3119 3118 3118 3118 3118 3119 3119 3120
3106 3106 3106 3106 3107 3107 3108 3109 3110 3111 3112 3112 3112 3113 3113 3113 3112 3112 3112 3112 3112 3113 3113 3113 3113 3115 3115 3116 3116 3116 3116 3116 3115 3114 3114 3114 3113 3113 3114 3114 3114 3114
3104 3104 3104 3105 3105 3105 3106 3106 3106 3107 3108 3109 3109 3109 3110 3110 3110 3109 3109 3109 3109 3109 3109 3109 3109 3110 3111 3111 3111 3111 3111 3110 3110 3109 3109 3109 3108 3108 3108 3108 3108 3109
Wind_Speed
19 17 16 15 13 11 8 6 4 4 5 7 8 7 6 4 2 1 3 5 7 8 7 6 6 5 6 6 6 6 6 6 6 6 6 7 8 8 7 8 8 7
21 19 18 17 15 13 11 8 5 4 5 6 7 5 4 3 2 1 3 4 5 6 6 6 6 6 6 6 5 5 5 5 6 6 5 6 6 7 7 7 8 8
21 19 18 17 16 14 12 9 6 5 5 6 6 4 2 1 1 0 2 3 4 5 5 6 6 7 6 5 5 5 5 5 5 6 7 7 7 7 7 7 8 8
23 20 19 17 16 15 13 10 7 5 6 6 6 3 1 2 1 1 2 3 4 5 6 7 7 7 7 6 5 5 5 4 5 6 8 9 9 9 8 8 8 8
24 22 20 18 17 16 14 10 7 6 6 7 6 3 2 3 2 1 2 3 3 4 5 7 7 8 7 7 6 5 5 4 5 6 7 9 9 9 9 8 8 8
27 24 21 19 18 18 16 11 8 7 8 8 6 4 2 3 3 2 2 3 4 4 6 7 7 8 8 7 7 6 5 5 5 5 5 7 8 8 8 7 7 7
27 23 21 20 19 19 16 11 9 8 9 8 6 4 3 3 3 3 3 4 5 6 7 7 8 8 8 9 8 7 7 7 7 6 6 6 7 7 8 7 7 6
22 21 23 23 22 20 15 10 9 9 8 7 5 4 4 5 5 5 5 5 7 8 8 9 9 9 10 10 10 10 10 10 10 9 8 8 8 8 9 9 9 8
23 24 25 24 24 22 15 10 9 9 8 7 6 5 6 7 7 6 6 7 9 11 11 11 11 11 11 12 12 12 12 12 12 12 11 10 10 9 9 10 11 10
25 27 26 25 27 25 16 11 10 9 8 8 7 7 8 8 8 7 7 9 11 12 12 12 12 12 12 13 13 14 14 14 13 14 14 12 11 11 10 10 11 10
27 28 28 29 30 25 18 13 11 8 8 9 8 9 9 8 8 7 8 11 13 13 13 13 13 13 13 13 14 15 14 14 14 14 14 13 12 12 11 10 10 10
27 26 28 30 28 23 19 14 10 9 9 9 9 10 10 9 8 8 10 11 13 14 13 13 13 14 14 13 14 15 14 14 13 14 13 13 13 12 11 11 10 9
21 19 22 24 24 22 18 13 10 11 11 9 9 10 11 10 9 9 10 11 13 13 13 13 13 13 14 13 13 14 14 13 13 13 13 12 12 12 12 11 10 9
15 14 17 20 22 21 17 15 14 14 11 9 10 11 12 12 11 10 10 11 12 13 13 13 13 13 13 13 12 12 12 13 13 13 13 13 13 12 11 11 10 10
12 13 14 17 20 20 20 19 17 15 13 12 11 12 13 13 13 12 11 12 12 13 13 13 13 13 13 13 12 12 12 12 13 13 13 13 13 12 12 12 11 11
11 12 15 18 20 21 22 21 19 17 15 13 13 12 13 13 13 13 13 13 14 14 14 14 14 14 14 14 14 14 14 14 14 15 15 15 15 15 15 15 14 14
12 14 17 20 22 23 22 20 20 18 15 13 13 13 14 13 13 13 14 14 15 15 15 15 16 16 16 16 16 16 17 17 17 18 19 18 18 18 18 18 18 18
12 14 15 17 21 22 20 18 17 16 15 13 12 13 14 14 13 14 14 15 15 16 16 16 17 17 17 17 18 18 18 19 19 20 21 21 21 21 21 22 22 21
11 13 14 15 17 18 17 16 16 15 14 13 12 13 14 15 14 14 15 15 16 17 17 17 17 18 18 18 18 19 20 21 21 23 24 24 24 25 25 25 25 25
10 11 13 14 15 16 17 17 16 16 16 16 15 15 15 15 15 15 15 16 17 17 17 17 17 18 19 19 19 20 21 22 24 25 26 27 27 27 28 27 27 27
12 11 12 13 14 15 15 15 15 16 18 19 19 19 18 17 16 16 16 16 16 16 16 16 16 17 18 19 20 21 23 24 26 27 28 28 29 29 30 29 28 28
14 14 14 14 14 14 15 15 15 16 18 19 19 18 17 18 18 17 17 17 17 17 17 16 16 17 17 18 19 21 23 24 25 26 27 27 27 29 30 28 27 28
16 16 16 16 16 16 17 17 18 18 19 19 19 17 17 18 18 18 18 19 19 19 18 18 18 17 17 18 19 20 21 22 23 25 25 26 26 28 30 30 28 28
15 15 14 15 15 16 16 17 18 18 18 19 20 20 21 21 21 21 20 20 21 21 21 21 20 19 19 20 20 21 22 23 24 26 27 28 30 31 31 32 32 31
15 14 14 15 15 16 17 18 19 19 20 21 22 23 23 24 24 24 24 24 24 24 24 24 25 24 24 24 24 24 25 26 28 30 30 31 32 33 32 33 34 33
16 17 17 18 19 19 20 21 22 23 23 24 25 26 26 26 27 27 27 27 27 27 27 28 29 29 28 28 28 29 30 31 32 33 34 34 35 35 35 35 36 35
Wind_Direction
210 214 222 228 233 238 245 254 281 315 328 334 333 334 341 358 42 148 193 187 198 212 218 216 209 200 198 202 210 210 202 194 186 189 197 197 200 208 223 231 225 220
214 221 226 230 234 242 250 258 276 295 307 319 319 322 332 343 22 128 180 188 206 213 205 196 187 183 191 195 197 196 192 185 172 168 170 173 184 196 202 206 211 218
215 224 227 231 237 245 253 258 267 276 292 307 303 301 305 283 310 286 219 211 209 201 187 182 173 173 183 184 177 181 185 178 160 148 143 144 154 166 174 181 192 202
218 227 228 230 237 245 252 258 268 275 290 301 290 272 234 223 226 263 263 232 205 188 174 167 162 165 172 171 167 173 176 162 144 141 140 140 144 152 158 163 172 180
227 233 232 231 237 246 251 257 267 278 294 301 290 273 220 206 209 231 269 248 214 183 164 158 155 159 161 160 160 163 162 146 133 136 140 142 146 150 154 157 167 173
227 228 230 232 237 245 250 255 263 274 290 295 288 279 240 199 202 222 250 243 215 182 163 155 150 149 148 149 152 152 145 131 125 131 135 136 138 142 148 155 165 170
217 216 225 233 238 243 246 249 255 265 280 281 271 263 236 197 197 217 231 225 200 183 170 156 148 146 141 140 140 138 134 127 126 131 130 130 130 135 144 148 155 164
220 215 224 231 232 237 241 240 246 259 267 260 246 238 222 202 202 210 217 207 187 177 169 158 154 149 141 139 137 134 133 132 132 133 131 132 133 137 143 142 142 152
228 222 224 228 228 230 229 227 238 251 252 242 228 216 209 204 205 206 205 194 179 171 167 162 158 151 144 143 140 136 135 135 136 135 133 133 136 138 141 141 142 148
223 220 220 225 231 229 216 215 232 237 236 237 224 207 203 205 207 201 192 182 171 168 168 165 157 150 148 147 143 139 137 137 136 135 135 138 140 141 142 145 150 155
230 227 221 223 231 226 206 205 221 220 228 235 215 197 197 203 207 197 183 176 171 171 173 167 158 152 151 151 148 143 141 140 139 139 142 146 148 150 154 158 163 169
234 229 223 222 225 217 203 202 207 205 220 225 200 189 190 196 204 194 180 177 175 176 177 170 162 158 157 158 156 152 149 149 148 149 152 156 160 164 169 174 179 186
236 230 229 222 213 206 199 194 196 201 209 206 187 184 185 188 198 196 185 183 182 182 182 178 173 169 167 168 169 165 162 162 164 166 169 173 179 184 188 192 199 206
243 238 233 216 207 204 192 185 193 195 194 192 187 187 187 187 194 199 196 194 192 191 189 186 185 183 180 181 183 183 181 181 185 188 191 194 199 204 209 214 221 229
232 231 225 207 204 201 187 184 193 190 185 188 186 187 193 192 194 200 203 205 205 203 201 198 197 196 195 195 198 203 205 206 209 211 213 216 219 224 230 236 243 250
206 212 209 198 196 194 189 190 192 188 188 190 186 187 194 196 198 202 207 211 213 213 212 210 209 210 210 209 210 214 219 223 226 228 231 232 232 235 240 244 249 253
187 192 196 194 193 196 198 196 191 187 188 192 193 192 192 194 199 204 211 217 219 219 218 216 216 218 220 220 221 223 225 229 234 238 241 242 243 244 246 249 251 254
181 185 191 192 193 200 204 200 195 191 187 188 196 198 195 195 199 203 210 217 222 224 222 219 219 221 223 225 227 229 231 234 237 241 245 248 250 252 254 255 257 258
183 187 194 194 193 201 208 205 203 201 196 192 197 204 203 198 199 205 209 213 220 224 224 222 221 223 226 228 229 232 234 237 240 242 246 248 250 253 256 257 258 259
199 199 204 203 200 207 214 214 211 209 207 202 201 207 209 203 201 208 213 216 221 225 226 225 223 225 228 230 231 232 235 238 240 243 245 248 250 252 253 253 255 257
213 208 204 203 205 211 217 218 213 208 208 207 206 208 209 208 208 211 217 222 225 228 232 233 230 229 230 232 234 234 236 238 241 244 246 249 251 252 251 251 253 256
215 210 205 206 210 215 218 219 216 213 214 218 221 218 214 215 218 220 222 225 228 232 235 236 236 234 232 232 234 237 239 241 244 247 249 252 254 256 258 258 257 257
221 218 217 217 218 219 220 222 223 222 220 221 224 225 222 224 228 231 233 235 236 238 240 239 239 238 234 232 232 235 239 242 246 250 254 258 261 262 265 266 263 260
225 225 226 226 226 227 227 228 229 229 227 225 226 227 227 228 230 232 234 237 239 242 244 244 243 242 242 242 241 241 242 244 248 252 256 260 263 264 266 267 266 264
226 229 232 233 235 236 236 236 236 235 234 234 234 235 235 236 237 237 235 235 237 240 243 246 246 247 250 252 252 251 251 251 253 256 258 261 264 265 266 267 267 265
231 236 241 243 245 246 247 248 249 249 248 246 245 244 242 241 241 240 238 238 239 242 246 248 250 251 253 254 254 254 255 257 258 260 263 266 266 266 265 264 264 264